AFL7337 USTR-UCFM

Flight info

Callsign AFL7337
Flight time N/A
Altitude 35000
Route KEGI1Q KEGIR L165 MOTOG L94 KEROM N987 DAKOZ Z588 ARNIR N170 NEMKU W333 LUKUS N170 OGLAB/N0451F360 M34 TOMGO L147 BASAN KALIN1
Aircraft B738/M-SDE1FGHIJ1RWXYZ/LB1

Departure

Time 2026-05-08 10:44
Airport Roshchino International Airport (USTR)

Arrival

Time N/A
Airport Manas International Airport (UCFM)
Time Latitude Longitude Altitude Speed Heading
2026-05-08 10:02 57.18133 65.34689 340 ft 0 kts 54°
2026-05-08 10:30 57.18119 65.34654 335 ft 4 kts 53°
2026-05-08 10:30 57.18103 65.34617 340 ft 3 kts 45°
2026-05-08 10:30 57.18092 65.34600 336 ft 2 kts 20°
2026-05-08 10:31 57.18081 65.34598 336 ft 2 kts 330°
2026-05-08 10:31 57.18072 65.34610 336 ft 2 kts 316°
2026-05-08 10:31 57.18064 65.34623 334 ft 0 kts 314°
2026-05-08 10:31 57.18064 65.34624 334 ft 0 kts 314°
2026-05-08 10:34 57.18072 65.34610 336 ft 3 kts 315°
2026-05-08 10:34 57.18103 65.34552 338 ft 10 kts 314°
2026-05-08 10:35 57.18167 65.34434 338 ft 16 kts 315°
2026-05-08 10:35 57.18260 65.34261 336 ft 20 kts 315°
2026-05-08 10:35 57.18359 65.34079 335 ft 20 kts 314°
2026-05-08 10:35 57.18454 65.33902 338 ft 19 kts 315°
2026-05-08 10:36 57.18547 65.33731 339 ft 18 kts 314°
2026-05-08 10:36 57.18617 65.33567 338 ft 15 kts 284°
2026-05-08 10:36 57.18615 65.33375 339 ft 15 kts 255°
2026-05-08 10:36 57.18548 65.33228 335 ft 17 kts 227°
2026-05-08 10:37 57.18478 65.33034 332 ft 19 kts 263°
2026-05-08 10:37 57.18472 65.32772 327 ft 23 kts 268°
2026-05-08 10:37 57.18467 65.32461 327 ft 24 kts 268°
2026-05-08 10:37 57.18461 65.32163 334 ft 23 kts 267°
2026-05-08 10:38 57.18456 65.31872 352 ft 22 kts 266°
2026-05-08 10:38 57.18397 65.31640 350 ft 20 kts 227°
2026-05-08 10:38 57.18301 65.31447 356 ft 21 kts 228°
2026-05-08 10:38 57.18193 65.31230 362 ft 24 kts 227°
2026-05-08 10:39 57.18077 65.30993 367 ft 25 kts 228°
2026-05-08 10:39 57.17964 65.30763 372 ft 23 kts 227°
2026-05-08 10:39 57.17856 65.30549 375 ft 22 kts 226°
2026-05-08 10:39 57.17753 65.30338 378 ft 22 kts 227°
2026-05-08 10:40 57.17653 65.30136 381 ft 21 kts 227°
2026-05-08 10:40 57.17555 65.29939 383 ft 21 kts 227°
2026-05-08 10:40 57.17461 65.29746 384 ft 20 kts 228°
2026-05-08 10:40 57.17366 65.29554 386 ft 22 kts 227°
2026-05-08 10:41 57.17256 65.29332 386 ft 24 kts 227°
2026-05-08 10:41 57.17148 65.29115 386 ft 23 kts 227°
2026-05-08 10:41 57.17044 65.28902 386 ft 22 kts 227°
2026-05-08 10:41 57.16943 65.28696 385 ft 21 kts 228°
2026-05-08 10:42 57.16864 65.28538 383 ft 10 kts 233°
2026-05-08 10:42 57.16866 65.28405 383 ft 12 kts 286°
2026-05-08 10:42 57.16893 65.28250 381 ft 13 kts 289°
2026-05-08 10:42 57.16964 65.28194 380 ft 13 kts 37°
2026-05-08 10:43 57.17038 65.28348 382 ft 21 kts 48°
2026-05-08 10:43 57.17285 65.28849 385 ft 88 kts 48°
2026-05-08 10:43 57.17846 65.29986 378 ft 150 kts 48°
2026-05-08 10:43 57.18649 65.31575 732 ft 174 kts 49°
2026-05-08 10:44 57.19470 65.33205 1645 ft 179 kts 44°
2026-05-08 10:44 57.20395 65.35024 2052 ft 208 kts 45°
2026-05-08 10:44 57.21419 65.37086 2360 ft 234 kts 45°
2026-05-08 10:44 57.22540 65.39379 2872 ft 249 kts 46°
2026-05-08 10:45 57.23741 65.41856 3390 ft 266 kts 46°
2026-05-08 10:45 57.24969 65.44393 4391 ft 265 kts 46°
2026-05-08 10:45 57.26137 65.47105 5104 ft 278 kts 61°
2026-05-08 10:45 57.26587 65.50601 5920 ft 283 kts 92°
2026-05-08 10:46 57.26183 65.54090 6780 ft 284 kts 113°
2026-05-08 10:46 57.25359 65.57454 7528 ft 289 kts 116°
2026-05-08 10:46 57.24496 65.60830 8387 ft 291 kts 116°
2026-05-08 10:46 57.23640 65.64250 9141 ft 296 kts 116°
2026-05-08 10:47 57.22782 65.67732 9970 ft 299 kts 115°
2026-05-08 10:47 57.21828 65.71156 10668 ft 302 kts 129°
2026-05-08 10:47 57.20255 65.73671 11392 ft 299 kts 156°
2026-05-08 10:47 57.18292 65.74683 11984 ft 301 kts 181°
2026-05-08 10:48 57.16182 65.74013 12164 ft 317 kts 206°
2026-05-08 10:48 57.14153 65.72133 12359 ft 337 kts 212°
2026-05-08 10:48 57.12062 65.69923 12719 ft 352 kts 213°
2026-05-08 10:48 57.09933 65.67623 13381 ft 357 kts 213°
2026-05-08 10:49 57.07771 65.65301 14093 ft 361 kts 213°
2026-05-08 10:49 57.05615 65.63011 14751 ft 364 kts 212°
2026-05-08 10:49 57.03406 65.60689 15422 ft 366 kts 212°
2026-05-08 10:49 57.01171 65.58357 16061 ft 370 kts 212°
2026-05-08 10:50 56.98915 65.56015 16706 ft 374 kts 212°
2026-05-08 10:50 56.96639 65.53660 17376 ft 377 kts 212°
2026-05-08 10:50 56.94373 65.51320 18001 ft 380 kts 212°
2026-05-08 10:50 56.92055 65.48930 18574 ft 384 kts 212°
2026-05-08 10:51 56.89715 65.46521 19110 ft 387 kts 212°
2026-05-08 10:51 56.87355 65.44096 19645 ft 390 kts 212°
2026-05-08 10:51 56.84975 65.41652 20162 ft 394 kts 211°
2026-05-08 10:51 56.82567 65.39183 20701 ft 397 kts 211°
2026-05-08 10:52 56.80150 65.36710 21195 ft 400 kts 211°
2026-05-08 10:52 56.77632 65.34619 21675 ft 407 kts 198°
2026-05-08 10:52 56.74804 65.33985 22168 ft 414 kts 181°
2026-05-08 10:52 56.71909 65.34156 22693 ft 417 kts 179°
2026-05-08 10:53 56.68991 65.34405 23160 ft 421 kts 179°
2026-05-08 10:53 56.66051 65.34653 23605 ft 425 kts 179°
2026-05-08 10:53 56.63089 65.34876 24008 ft 427 kts 180°
2026-05-08 10:53 56.60102 65.35073 24427 ft 429 kts 180°
2026-05-08 10:54 56.57101 65.35254 24837 ft 431 kts 180°
2026-05-08 10:54 56.54096 65.35430 25237 ft 433 kts 180°
2026-05-08 10:54 56.51106 65.35604 25607 ft 436 kts 180°
2026-05-08 10:54 56.48060 65.35782 25977 ft 438 kts 180°
2026-05-08 10:55 56.44999 65.35961 26353 ft 440 kts 180°
2026-05-08 10:55 56.41927 65.36140 26720 ft 442 kts 180°
2026-05-08 10:55 56.38838 65.36319 27077 ft 445 kts 180°
2026-05-08 10:55 56.35734 65.36500 27427 ft 447 kts 180°
2026-05-08 10:56 56.32654 65.36679 27769 ft 449 kts 180°
2026-05-08 10:56 56.29527 65.36861 28110 ft 451 kts 180°
2026-05-08 10:56 56.26382 65.37042 28437 ft 453 kts 180°
2026-05-08 10:56 56.23235 65.37477 28724 ft 458 kts 169°
2026-05-08 10:57 56.20242 65.39518 29013 ft 464 kts 150°
2026-05-08 10:57 56.17710 65.43130 29362 ft 468 kts 133°
2026-05-08 10:57 56.14792 65.53414 29998 ft 473 kts 100°
2026-05-08 10:58 56.14337 65.59265 30393 ft 471 kts 97°
2026-05-08 10:58 56.13963 65.65103 30752 ft 470 kts 96°
2026-05-08 10:58 56.13605 65.70940 31054 ft 470 kts 96°
2026-05-08 10:58 56.13236 65.76767 31377 ft 470 kts 97°
2026-05-08 10:59 56.12850 65.82586 31729 ft 469 kts 97°
2026-05-08 10:59 56.12450 65.88329 32051 ft 468 kts 97°
2026-05-08 10:59 56.12034 65.94123 32356 ft 468 kts 98°
2026-05-08 10:59 56.11610 65.99910 32666 ft 468 kts 98°
2026-05-08 11:00 56.11181 66.05689 32992 ft 467 kts 98°
2026-05-08 11:00 56.10751 66.11450 33305 ft 467 kts 98°
2026-05-08 11:00 56.10318 66.17220 33603 ft 467 kts 98°
2026-05-08 11:00 56.10028 66.21057 33784 ft 467 kts 98°
2026-05-08 11:01 56.09450 66.28692 34125 ft 466 kts 98°
2026-05-08 11:01 56.09010 66.34448 34351 ft 466 kts 98°
2026-05-08 11:01 56.08568 66.40210 34534 ft 468 kts 98°
2026-05-08 11:01 56.08272 66.44047 34653 ft 468 kts 98°
2026-05-08 11:02 56.07823 66.49834 34858 ft 468 kts 98°
2026-05-08 11:02 56.06913 66.61472 34907 ft 472 kts 98°
2026-05-08 11:03 56.05994 66.73070 34895 ft 468 kts 99°
2026-05-08 11:03 56.05076 66.84511 34901 ft 465 kts 99°
2026-05-08 11:04 56.04146 66.95974 34903 ft 464 kts 99°
2026-05-08 11:04 56.03215 67.07310 34905 ft 464 kts 99°
2026-05-08 11:05 56.02262 67.18799 34919 ft 471 kts 99°
2026-05-08 11:05 56.01576 67.24522 34892 ft 472 kts 110°
2026-05-08 11:05 56.00212 67.29827 34920 ft 469 kts 123°
2026-05-08 11:05 55.98292 67.34508 34900 ft 466 kts 136°
2026-05-08 11:06 55.95922 67.38424 34922 ft 464 kts 141°
2026-05-08 11:06 55.90996 67.45920 34901 ft 465 kts 142°
2026-05-08 11:07 55.86075 67.53446 34889 ft 466 kts 142°
2026-05-08 11:07 55.81209 67.60986 34889 ft 465 kts 141°
2026-05-08 11:08 55.76334 67.68554 34888 ft 464 kts 141°
2026-05-08 11:08 55.71474 67.76070 34884 ft 462 kts 142°
2026-05-08 11:09 55.66653 67.83495 34883 ft 460 kts 142°
2026-05-08 11:09 55.61822 67.90910 34884 ft 459 kts 142°
2026-05-08 11:10 55.56999 67.98291 34888 ft 457 kts 142°
2026-05-08 11:10 55.52170 68.05627 34877 ft 456 kts 143°
2026-05-08 11:11 55.47327 68.12866 34881 ft 455 kts 143°
2026-05-08 11:11 55.42522 68.20018 34875 ft 455 kts 143°
2026-05-08 11:12 55.37671 68.27230 34882 ft 455 kts 143°
2026-05-08 11:12 55.32827 68.34414 34879 ft 455 kts 143°
2026-05-08 11:13 55.28009 68.41537 34878 ft 456 kts 143°
2026-05-08 11:13 55.23151 68.48699 34874 ft 456 kts 143°
2026-05-08 11:14 55.18323 68.55963 34875 ft 458 kts 141°
2026-05-08 11:14 55.13698 68.63672 34878 ft 459 kts 140°
2026-05-08 11:15 55.09130 68.71400 34873 ft 460 kts 140°
2026-05-08 11:15 55.04501 68.79128 34875 ft 460 kts 140°
2026-05-08 11:16 54.99854 68.86814 34868 ft 460 kts 141°
2026-05-08 11:16 54.95200 68.94477 34865 ft 460 kts 141°
2026-05-08 11:17 54.90574 69.02073 34860 ft 459 kts 141°
2026-05-08 11:17 54.85915 69.09703 34855 ft 459 kts 141°
2026-05-08 11:18 54.81231 69.17247 34852 ft 456 kts 146°
2026-05-08 11:18 54.78642 69.20205 34856 ft 448 kts 158°
2026-05-08 11:18 54.75799 69.22305 34857 ft 441 kts 167°
2026-05-08 11:19 54.69840 69.24200 34858 ft 433 kts 177°
2026-05-08 11:19 54.64871 69.25313 34862 ft 433 kts 177°
2026-05-08 11:20 54.57917 69.26928 34860 ft 433 kts 177°
2026-05-08 11:20 54.51949 69.28365 34860 ft 432 kts 175°
2026-05-08 11:21 54.45991 69.29808 34867 ft 431 kts 174°
2026-05-08 11:21 54.40050 69.31248 34874 ft 430 kts 174°
2026-05-08 11:22 54.34167 69.32667 34878 ft 428 kts 174°
2026-05-08 11:22 54.28261 69.34087 34878 ft 427 kts 174°
2026-05-08 11:23 54.22375 69.35497 34883 ft 426 kts 174°
2026-05-08 11:23 54.16494 69.36902 34886 ft 426 kts 174°
2026-05-08 11:24 54.10642 69.38296 34889 ft 426 kts 174°
2026-05-08 11:24 54.04748 69.39697 34894 ft 427 kts 174°
2026-05-08 11:25 53.98840 69.41133 34894 ft 430 kts 173°
2026-05-08 11:25 53.92964 69.43016 34898 ft 432 kts 171°
2026-05-08 11:26 53.87050 69.45027 34904 ft 434 kts 171°
2026-05-08 11:26 53.81142 69.46979 34902 ft 435 kts 171°
2026-05-08 11:27 53.75170 69.48911 34907 ft 436 kts 171°
2026-05-08 11:27 53.69228 69.50819 34902 ft 437 kts 171°
2026-05-08 11:28 53.63239 69.52737 34908 ft 437 kts 171°
2026-05-08 11:28 53.57250 69.54651 34910 ft 437 kts 171°
2026-05-08 11:29 53.51265 69.56558 34910 ft 436 kts 171°
2026-05-08 11:29 53.45307 69.58452 34910 ft 435 kts 171°
2026-05-08 11:30 53.39399 69.60324 34914 ft 434 kts 171°
2026-05-08 11:30 53.33623 69.63299 34913 ft 437 kts 156°
2026-05-08 11:31 53.28405 69.68588 34907 ft 438 kts 149°
2026-05-08 11:31 53.23284 69.74130 34910 ft 438 kts 149°
2026-05-08 11:32 53.18185 69.79578 34915 ft 437 kts 150°
2026-05-08 11:32 53.13028 69.85022 34914 ft 437 kts 150°
2026-05-08 11:33 53.07882 69.90425 34918 ft 438 kts 150°
2026-05-08 11:33 53.02717 69.95833 34919 ft 438 kts 150°
2026-05-08 11:34 52.97587 70.01190 34923 ft 439 kts 150°
2026-05-08 11:34 52.92397 70.06596 34920 ft 440 kts 150°
2026-05-08 11:35 52.87189 70.12005 34924 ft 441 kts 150°
2026-05-08 11:35 52.82002 70.17378 34926 ft 442 kts 150°
2026-05-08 11:36 52.76765 70.22789 34921 ft 443 kts 150°
2026-05-08 11:36 52.71537 70.28216 34925 ft 444 kts 149°
2026-05-08 11:37 52.66375 70.33879 34930 ft 445 kts 149°
2026-05-08 11:37 52.61261 70.39549 34923 ft 446 kts 149°
2026-05-08 11:38 52.56096 70.45227 34928 ft 446 kts 149°
2026-05-08 11:38 52.50924 70.50874 34927 ft 446 kts 149°
2026-05-08 11:39 52.45750 70.56499 34929 ft 445 kts 149°
2026-05-08 11:39 52.40575 70.62109 34930 ft 445 kts 149°
2026-05-08 11:40 52.35434 70.67669 34928 ft 445 kts 150°
2026-05-08 11:40 52.30260 70.73247 34931 ft 445 kts 150°
2026-05-08 11:41 52.25086 70.78811 34929 ft 445 kts 150°
2026-05-08 11:41 52.19936 70.84333 34931 ft 444 kts 150°
2026-05-08 11:42 52.14780 70.89846 34931 ft 444 kts 150°
2026-05-08 11:42 52.09600 70.95370 34932 ft 444 kts 150°
2026-05-08 11:43 52.04419 71.00881 34931 ft 445 kts 150°
2026-05-08 11:43 51.99261 71.06343 34938 ft 445 kts 150°
2026-05-08 11:44 51.94056 71.11833 34937 ft 445 kts 151°
2026-05-08 11:44 51.88857 71.17305 34939 ft 446 kts 151°
2026-05-08 11:45 51.83642 71.22780 34934 ft 446 kts 151°
2026-05-08 11:45 51.78452 71.28215 34926 ft 447 kts 151°
2026-05-08 11:46 51.73214 71.33684 34939 ft 447 kts 151°
2026-05-08 11:46 51.67986 71.39129 34921 ft 448 kts 151°
2026-05-08 11:47 51.63632 71.43651 34942 ft 448 kts 152°
2026-05-08 11:47 51.58409 71.49063 34934 ft 448 kts 152°
2026-05-08 11:48 51.53153 71.54496 34934 ft 449 kts 152°
2026-05-08 11:48 51.47890 71.59919 34940 ft 449 kts 152°
2026-05-08 11:49 51.42655 71.65299 34938 ft 449 kts 152°
2026-05-08 11:49 51.37392 71.70698 34936 ft 449 kts 152°
2026-05-08 11:50 51.32126 71.76086 34940 ft 449 kts 152°
2026-05-08 11:50 51.26853 71.81467 34941 ft 449 kts 153°
2026-05-08 11:51 51.21612 71.86800 34938 ft 449 kts 153°
2026-05-08 11:51 51.16338 71.92152 34937 ft 448 kts 153°
2026-05-08 11:52 51.11068 71.97485 34940 ft 448 kts 153°
2026-05-08 11:52 51.05829 72.02772 34948 ft 448 kts 153°
2026-05-08 11:53 51.00559 72.08075 34945 ft 448 kts 153°
2026-05-08 11:53 50.95314 72.13341 34942 ft 448 kts 154°
2026-05-08 11:54 50.90033 72.18627 34944 ft 448 kts 154°
2026-05-08 11:54 50.84757 72.23894 34949 ft 449 kts 154°
2026-05-08 11:55 50.79458 72.29169 34949 ft 449 kts 154°
2026-05-08 11:55 50.74185 72.34404 34944 ft 450 kts 154°
2026-05-08 11:56 50.68866 72.39671 34951 ft 450 kts 154°
2026-05-08 11:56 50.63572 72.44900 34947 ft 451 kts 155°
2026-05-08 11:57 50.58235 72.50156 34947 ft 451 kts 155°
2026-05-08 11:57 50.52930 72.55368 34951 ft 451 kts 155°
2026-05-08 11:58 50.47593 72.60595 34950 ft 452 kts 155°
2026-05-08 11:58 50.42273 72.65793 34952 ft 452 kts 155°
2026-05-08 11:59 50.34259 72.73598 34952 ft 452 kts 155°
2026-05-08 11:59 50.28908 72.78792 34955 ft 452 kts 155°
2026-05-08 12:00 50.23582 72.83949 34955 ft 452 kts 155°
2026-05-08 12:00 50.18240 72.89145 34955 ft 452 kts 154°
2026-05-08 12:01 50.12946 72.94364 34951 ft 452 kts 154°
2026-05-08 12:01 50.07630 72.99599 34951 ft 452 kts 154°
2026-05-08 12:02 50.02302 73.04820 34951 ft 451 kts 154°
2026-05-08 12:02 49.96985 73.10012 34949 ft 451 kts 154°
2026-05-08 12:03 49.91708 73.15152 34947 ft 450 kts 154°
2026-05-08 12:03 49.86390 73.20317 34946 ft 450 kts 154°
2026-05-08 12:04 49.81072 73.25470 34937 ft 450 kts 154°
2026-05-08 12:04 49.75782 73.30583 34932 ft 450 kts 154°
2026-05-08 12:05 49.70470 73.35705 34937 ft 450 kts 154°
2026-05-08 12:05 49.64918 73.39885 34950 ft 440 kts 165°
2026-05-08 12:06 49.59225 73.43235 34938 ft 440 kts 166°
2026-05-08 12:06 49.53490 73.46605 34942 ft 440 kts 165°
2026-05-08 12:07 49.47802 73.49998 34944 ft 440 kts 165°
2026-05-08 12:07 49.42079 73.53429 34954 ft 441 kts 165°
2026-05-08 12:08 49.36351 73.56858 34962 ft 442 kts 165°
2026-05-08 12:08 49.30616 73.60282 34966 ft 442 kts 165°
2026-05-08 12:09 49.24909 73.63679 34966 ft 443 kts 165°
2026-05-08 12:09 49.19142 73.67104 34971 ft 443 kts 165°
2026-05-08 12:10 49.13412 73.70498 34968 ft 444 kts 165°
2026-05-08 12:10 49.07648 73.73904 34969 ft 444 kts 165°
2026-05-08 12:11 49.01884 73.77303 34980 ft 444 kts 165°
2026-05-08 12:11 48.96107 73.80696 34973 ft 444 kts 165°
2026-05-08 12:12 48.90374 73.84043 34982 ft 444 kts 165°
2026-05-08 12:12 48.84587 73.87412 34983 ft 444 kts 165°
2026-05-08 12:13 48.78851 73.90745 34990 ft 444 kts 165°
2026-05-08 12:13 48.73070 73.94097 34990 ft 443 kts 165°
2026-05-08 12:14 48.67300 73.97436 34996 ft 443 kts 165°
2026-05-08 12:14 48.61564 74.00745 34995 ft 443 kts 165°
2026-05-08 12:15 48.55785 74.04072 34993 ft 443 kts 165°
2026-05-08 12:15 48.50047 74.07367 34997 ft 443 kts 165°
2026-05-08 12:16 48.44272 74.10675 34990 ft 444 kts 165°
2026-05-08 12:16 48.38491 74.13979 34988 ft 444 kts 165°
2026-05-08 12:17 48.32743 74.17256 34996 ft 444 kts 165°
2026-05-08 12:17 48.26953 74.20549 34987 ft 444 kts 165°
2026-05-08 12:18 48.21173 74.23829 34989 ft 444 kts 165°
2026-05-08 12:18 48.15376 74.27111 34985 ft 445 kts 165°
2026-05-08 12:19 48.09617 74.30378 34986 ft 444 kts 165°
2026-05-08 12:19 48.03829 74.33687 34984 ft 444 kts 164°
2026-05-08 12:20 47.98042 74.36991 34996 ft 444 kts 164°
2026-05-08 12:20 47.92303 74.40256 34996 ft 444 kts 164°
2026-05-08 12:21 47.86518 74.43538 34997 ft 444 kts 164°
2026-05-08 12:21 47.80747 74.46803 34994 ft 444 kts 164°
2026-05-08 12:22 47.74962 74.50069 35001 ft 444 kts 164°
2026-05-08 12:22 47.69184 74.53323 34993 ft 444 kts 164°
2026-05-08 12:23 47.63434 74.56555 35001 ft 444 kts 164°
2026-05-08 12:23 47.57654 74.59796 35002 ft 444 kts 164°
2026-05-08 12:24 47.51866 74.63036 35001 ft 444 kts 164°
2026-05-08 12:24 47.46114 74.66269 35000 ft 444 kts 164°
2026-05-08 12:25 47.40326 74.69521 34998 ft 445 kts 164°
2026-05-08 12:25 47.34536 74.72766 34999 ft 445 kts 164°
2026-05-08 12:26 47.28737 74.76007 34991 ft 445 kts 164°
2026-05-08 12:26 47.22979 74.79217 34996 ft 444 kts 164°
2026-05-08 12:27 47.17180 74.82442 34989 ft 444 kts 164°
2026-05-08 12:27 47.11428 74.85633 34989 ft 444 kts 164°
2026-05-08 12:28 47.05637 74.88839 34992 ft 444 kts 164°
2026-05-08 12:28 46.99847 74.92038 34991 ft 444 kts 164°
2026-05-08 12:29 46.94055 74.95230 34996 ft 444 kts 164°
2026-05-08 12:29 46.88174 74.97286 35001 ft 431 kts 183°
2026-05-08 12:30 46.82347 74.96116 35002 ft 420 kts 200°
2026-05-08 12:30 46.76713 74.93724 34988 ft 421 kts 200°
2026-05-08 12:31 46.71118 74.91354 34988 ft 422 kts 200°
2026-05-08 12:31 46.65463 74.89013 34983 ft 422 kts 200°